CW8095 Weather Reports


Display with metric or nautical units.
time (UTC)temp
F
wind
direction
speed
MPH
gust
MPH
rain 1hr
in
rain 24hr
in
rain mn
in
humidity
%
barometer
mb
20260903100515 72 112 2.0 4.0 0.00 0.00 0.00 70 1013.0
20260903095526 72 116 2.0 4.0 0.00 0.00 0.00 70 1013.1
20260903094521 72 116 2.0 4.0 0.00 0.00 0.00 70 1013.1
20260903093517 72 114 2.0 4.0 0.00 0.00 0.00 70 1013.1
20260903092527 72 104 2.0 3.0 0.00 0.00 0.00 70 1013.1
20260903091523 72 101 2.0 3.0 0.00 0.00 0.00 70 1013.1
20260903090519 72 117 1.0 3.0 0.00 0.00 0.00 70 1012.9
20260903085549 72 113 1.0 3.0 0.00 0.00 0.00 70 1012.9
20260903084525 72 64 0.0 1.0 0.00 0.00 0.00 69 1012.9
20260903083520 72 48 2.0 3.0 0.00 0.00 0.00 68 1012.7
20260903082529 72 0.0 0.0 0.00 0.00 0.00 68 1012.8
20260903081524 72 0.0 0.0 0.00 0.00 0.00 68 1012.9
20260903080531 72 183 0.0 1.0 0.00 0.00 0.00 68 1013.0
20260903075531 72 184 1.0 3.0 0.00 0.00 0.00 68 1012.9
20260903074521 72 0.0 0.0 0.00 0.00 0.00 67 1012.9
20260903073518 73 158 0.0 2.0 0.00 0.00 0.00 67 1013.0
20260903072538 73 158 1.0 2.0 0.00 0.00 0.00 67 1013.2
20260903071531 73 161 1.0 3.0 0.00 0.00 0.00 66 1013.3
20260903070525 73 158 1.0 2.0 0.00 0.00 0.00 66 1013.2
20260903065527 73 160 1.0 3.0 0.00 0.00 0.00 65 1013.1
20260903064525 74 164 1.0 3.0 0.00 0.00 0.00 64 1013.1
20260903063529 74 155 0.0 2.0 0.00 0.00 0.00 63 1013.1
20260903062545 74 153 1.0 3.0 0.00 0.00 0.00 63 1013.3
20260903061539 74 133 0.0 1.0 0.00 0.00 0.00 63 1013.4
20260903060607 75 137 1.0 2.0 0.00 0.00 0.00 62 1013.6
20260903055538 75 140 2.0 3.0 0.00 0.00 0.00 62 1013.5
20260903054522 75 148 1.0 4.0 0.00 0.00 0.00 61 1013.7
20260903053527 75 137 2.0 3.0 0.00 0.00 0.00 61 1013.7
20260903052534 75 137 2.0 4.0 0.00 0.00 0.00 60 1013.9
20260903051534 76 147 3.0 7.0 0.00 0.00 0.00 59 1013.8
20260903050541 76 119 1.0 6.0 0.00 0.00 0.00 58 1013.6
20260903045541 76 142 2.0 4.0 0.00 0.00 0.00 58 1013.7
20260903044603 77 141 2.0 6.0 0.00 0.00 0.00 57 1013.5
20260903043524 77 142 2.0 4.0 0.00 0.00 0.00 56 1013.6
20260903042520 78 121 1.0 2.0 0.00 0.00 0.00 55 1013.5
20260903041517 78 119 3.0 6.0 0.00 0.00 0.00 55 1013.4
20260903040529 79 126 4.0 8.0 0.00 0.00 0.00 54 1013.4
20260903035525 79 109 4.0 6.0 0.00 0.00 0.00 54 1013.4
20260903034526 79 125 6.0 10.0 0.00 0.00 0.00 54 1013.5
20260903033527 79 119 6.0 10.0 0.00 0.00 0.00 53 1013.6
20260903032545 80 113 5.0 9.0 0.00 0.00 0.00 53 1013.4
20260903031523 80 112 5.0 9.0 0.00 0.00 0.00 52 1013.3
20260903030526 81 115 5.0 11.0 0.00 0.00 0.00 52 1013.2
20260903025521 81 115 5.0 8.0 0.00 0.00 0.00 51 1013.1
20260903024516 82 111 5.0 9.0 0.00 0.00 0.00 50 1012.9
20260903023527 82 114 6.0 11.0 0.00 0.00 0.00 48 1012.8
20260903022521 83 107 6.0 10.0 0.00 0.00 0.00 47 1012.7
20260903021517 83 110 7.0 14.0 0.00 0.00 0.00 46 1012.5
20260903020527 84 110 6.0 11.0 0.00 0.00 0.00 45 1012.4
20260903015522 84 108 6.0 10.0 0.00 0.00 0.00 45 1012.3
20260903014517 85 112 6.0 13.0 0.00 0.00 0.00 44 1012.2
20260903013546 85 107 6.0 10.0 0.00 0.00 0.00 44 1012.2
20260903012521 86 121 6.0 14.0 0.00 0.00 0.00 43 1012.1
20260903011517 86 112 5.0 9.0 0.00 0.00 0.00 43 1012.0
20260903010527 87 119 5.0 13.0 0.00 0.00 0.00 42 1011.9
20260903005522 87 112 7.0 14.0 0.00 0.00 0.00 41 1011.8
20260903004517 88 122 7.0 14.0 0.00 0.00 0.00 39 1011.8
20260903003527 89 125 6.0 13.0 0.00 0.00 0.00 37 1011.8
20260903002522 90 114 6.0 14.0 0.00 0.00 0.00 33 1011.6
20260903001517 90 106 7.0 15.0 0.00 0.00 0.00 34 1011.5
20260903000527 91 114 7.0 15.0 0.00 0.00 0.00 33 1011.5
20260902235522 92 116 7.0 15.0 0.00 0.00 0.00 33 1011.3
20260902234518 94 93 7.0 13.0 0.00 0.00 0.00 31 1011.3
20260902233528 95 56 7.0 11.0 0.00 0.00 0.00 29 1011.3
20260902232523 95 61 7.0 14.0 0.00 0.00 0.00 29 1011.2
20260902231518 96 107 6.0 14.0 0.00 0.00 0.00 29 1011.1
20260902230528 97 68 5.0 9.0 0.00 0.00 0.00 27 1011.2
20260902225523 98 99 5.0 13.0 0.00 0.00 0.00 26 1011.2
20260902224518 99 57 7.0 15.0 0.00 0.00 0.00 25 1011.2
20260902223549 99 70 6.0 11.0 0.00 0.00 0.00 25 1011.2
20260902222524 99 65 6.0 14.0 0.00 0.00 0.00 25 1011.3
20260902221519 100 57 6.0 11.0 0.00 0.00 0.00 25 1011.4
20260902220528 99 61 4.0 9.0 0.00 0.00 0.00 24 1011.4
20260902215026 99 59 5.0 13.0 0.00 0.00 0.00 26 1011.6
20260902214021 99 67 6.0 11.0 0.00 0.00 0.00 25 1011.7
20260902213016 99 58 4.0 10.0 0.00 0.00 0.00 27 1011.7
20260902212026 100 83 6.0 10.0 0.00 0.00 0.00 26 1011.9
20260902211528 100 56 4.0 11.0 0.00 0.00 0.00 26 1012.0
20260902210543 100 53 5.0 10.0 0.00 0.00 0.00 25 1012.1
20260902205519 99 76 5.0 10.0 0.00 0.00 0.00 26 1012.2
20260902204528 100 79 4.0 9.0 0.00 0.00 0.00 26 1012.3
20260902203523 100 65 6.0 14.0 0.00 0.00 0.00 26 1012.4
20260902202518 100 73 6.0 11.0 0.00 0.00 0.00 26 1012.4
20260902201528 101 65 5.0 10.0 0.00 0.00 0.00 26 1012.7
20260902200543 101 84 4.0 11.0 0.00 0.00 0.00 27 1012.8
20260902195518 99 92 4.0 9.0 0.00 0.00 0.00 26 1012.9
20260902194528 99 59 4.0 9.0 0.00 0.00 0.00 27 1013.1
20260902193523 99 66 5.0 11.0 0.00 0.00 0.00 27 1013.2
20260902192518 100 60 4.0 10.0 0.00 0.00 0.00 27 1013.5
20260902191528 100 317 3.0 8.0 0.00 0.00 0.00 29 1013.6
20260902190523 100 74 5.0 13.0 0.00 0.00 0.00 28 1013.8
20260902185518 100 81 4.0 11.0 0.00 0.00 0.00 28 1013.8
20260902184548 99 54 3.0 7.0 0.00 0.00 0.00 29 1014.2
20260902183523 100 31 3.0 10.0 0.00 0.00 0.00 29 1014.2
20260902182518 99 83 2.0 7.0 0.00 0.00 0.00 30 1014.4
20260902181528 99 322 3.0 9.0 0.00 0.00 0.00 30 1014.7
20260902180523 98 58 2.0 8.0 0.00 0.00 0.00 30 1014.8
20260902175518 98 47 4.0 8.0 0.00 0.00 0.00 30 1015.1
20260902174528 98 97 2.0 8.0 0.00 0.00 0.00 31 1015.3
20260902173524 97 354 3.0 7.0 0.00 0.00 0.00 32 1015.4
20260902172519 96 87 3.0 7.0 0.00 0.00 0.00 33 1015.5
20260902171609 95 77 3.0 7.0 0.00 0.00 0.00 33 1015.7
20260902170525 96 119 4.0 8.0 0.00 0.00 0.00 33 1016.0
20260902165520 96 105 2.0 3.0 0.00 0.00 0.00 33 1016.0
20260902164529 95 50 2.0 3.0 0.00 0.00 0.00 34 1016.1
20260902163525 95 61 3.0 8.0 0.00 0.00 0.00 34 1016.2
20260902162520 94 122 2.0 6.0 0.00 0.00 0.00 34 1016.2
20260902161530 94 107 3.0 7.0 0.00 0.00 0.00 34 1016.3
20260902160545 94 58 2.0 6.0 0.00 0.00 0.00 34 1016.3
20260902155528 92 101 2.0 6.0 0.00 0.00 0.00 35 1016.4
20260902154521 92 103 3.0 7.0 0.00 0.00 0.00 37 1016.4
20260902153530 90 60 3.0 7.0 0.00 0.00 0.00 39 1016.4
20260902152600 89 128 2.0 4.0 0.00 0.00 0.00 41 1016.5
20260902151527 88 87 2.0 6.0 0.00 0.00 0.00 43 1016.3
20260902150522 87 95 2.0 6.0 0.00 0.00 0.00 44 1016.3
20260902145526 86 107 1.0 3.0 0.00 0.00 0.00 45 1016.4
20260902144517 85 105 1.0 3.0 0.00 0.00 0.00 47 1016.2
20260902143527 84 127 1.0 4.0 0.00 0.00 0.00 49 1016.4
20260902142523 83 113 3.0 4.0 0.00 0.00 0.00 50 1016.3
20260902141517 81 122 2.0 6.0 0.00 0.00 0.00 53 1016.3
20260902140547 79 127 2.0 3.0 0.00 0.00 0.00 55 1016.3
20260902135522 78 127 3.0 6.0 0.00 0.00 0.00 57 1016.3
20260902134537 77 109 2.0 4.0 0.00 0.00 0.00 58 1016.1
20260902133527 75 109 2.0 4.0 0.00 0.00 0.00 60 1016.3
20260902132522 75 109 2.0 6.0 0.00 0.00 0.00 62 1016.3
20260902131517 74 114 3.0 7.0 0.00 0.00 0.00 63 1016.3
20260902130527 74 103 3.0 6.0 0.00 0.00 0.00 63 1016.1
20260902125522 73 104 2.0 4.0 0.00 0.00 0.00 64 1015.9
20260902124518 73 106 2.0 3.0 0.00 0.00 0.00 66 1015.8
20260902123528 72 110 1.0 3.0 0.00 0.00 0.00 66 1015.7
20260902122522 72 117 1.0 2.0 0.00 0.00 0.00 66 1015.6
20260902121517 72 106 2.0 4.0 0.00 0.00 0.00 65 1015.6
20260902120527 72 102 2.0 3.0 0.00 0.00 0.00 65 1015.6
20260902115522 72 94 2.0 3.0 0.00 0.00 0.00 65 1015.5
20260902114517 73 96 2.0 4.0 0.00 0.00 0.00 65 1015.6
20260902113527 72 102 2.0 3.0 0.00 0.00 0.00 65 1015.6
20260902112522 72 94 2.0 3.0 0.00 0.00 0.00 65 1015.6
20260902111517 73 86 0.0 1.0 0.00 0.00 0.00 66 1015.5
20260902110526 73 94 1.0 2.0 0.00 0.00 0.00 65 1015.5